Weather History for Monticello, AR

Change the Weather History Date:

Saturday, August 3, 2013

  Actual Average Record
Temperature  
Mean Temperature 84 °F -  
Max Temperature 91 °F 89 °F 107 °F (2011)
Min Temperature 75 °F 67 °F 58 °F (1973)
Cooling Degree Days 19    
Growing Degree Days 34 (Base 50)    
Moisture  
Dew Point 72 °F    
Average Humidity 69    
Maximum Humidity 88    
Minimum Humidity 52    
Precipitation  
Precipitation 0.00 in - - ()
Sea Level Pressure  
Sea Level Pressure 30.00 in    
Wind  
Wind Speed 5 mph (WSW)    
Max Wind Speed 9 mph    
Max Gust Speed -    
Visibility 10 miles    
Events      
Averages and records for this station are not official NWS values.
T = Trace of Precipitation, MM = Missing Value Source: NWS Daily Summary

Daily Weather History Graph

Daily Weather History Graph

Search for Another Location

Airport:

Trip Planner

Search our weather history database for the weather conditions in past years. The results will help you decide how hot, cold, wet, or windy it might be!

Date:

Astronomy

Aug. 03, 2013 Rise Set
Actual Time 6:20 AM CDT 8:05 PM CDT
Civil Twilight 5:53 AM CDT 8:32 PM CDT
Nautical Twilight 5:21 AM CDT 9:04 PM CDT
Astronomical Twilight 4:46 AM CDT 9:39 PM CDT
Moon 3:32 AM CDT (8/3) 5:46 PM CDT (8/3)
Length of Visible Light 14h 38m
Length of Day
13h 44m
Waning Crescent, 9% of the Moon is Illuminated
Aug 3
Waning Crescent
Aug 6
New
Aug 14
First Quarter
Aug 20
Full
Aug 28
Last Quarter

Hourly Weather History & Observations

Time (CDT) Temp. Heat Index Dew Point Humidity Pressure Visibility Wind Dir Wind Speed Gust Speed Precip Events Conditions
12:53 AM 81.0 °F 84.4 °F 70.0 °F 69% 29.96 in 10.0 mi South 4.6 mph - N/A   Clear
1:53 AM 80.1 °F 83.6 °F 71.1 °F 74% 29.97 in 10.0 mi South 3.5 mph - N/A   Clear
2:53 AM 81.0 °F 85.2 °F 72.0 °F 74% 29.96 in 10.0 mi South 6.9 mph - N/A   Clear
3:53 AM 81.0 °F 85.2 °F 72.0 °F 74% 29.94 in 10.0 mi SSW 6.9 mph - N/A   Clear
4:53 AM 82.0 °F 86.7 °F 72.0 °F 71% 29.94 in 10.0 mi SSW 9.2 mph - N/A   Clear
5:53 AM 81.0 °F 85.8 °F 73.0 °F 77% 29.94 in 10.0 mi SW 8.1 mph - N/A   Clear
6:53 AM 80.1 °F 84.2 °F 73.0 °F 79% 29.95 in 10.0 mi SW 5.8 mph - N/A   Clear
7:53 AM 80.1 °F 84.5 °F 73.9 °F 81% 29.99 in 10.0 mi WSW 6.9 mph - N/A   Clear
8:53 AM 81.0 °F 86.2 °F 73.9 °F 79% 30.02 in 10.0 mi West 5.8 mph - N/A   Clear
9:53 AM 84.0 °F 91.2 °F 73.9 °F 72% 30.03 in 10.0 mi West 6.9 mph - N/A   Clear
10:53 AM 84.9 °F 92.1 °F 73.9 °F 69% 30.04 in 10.0 mi West 8.1 mph - N/A   Clear
11:53 AM 88.0 °F 96.5 °F 73.9 °F 63% 30.04 in 10.0 mi Variable 6.9 mph - N/A   Clear
12:53 PM 89.1 °F 98.0 °F 73.9 °F 61% 30.04 in 10.0 mi NW 9.2 mph - N/A   Clear
1:53 PM 91.0 °F 98.2 °F 72.0 °F 53% 30.03 in 10.0 mi NE 9.2 mph - N/A   Clear
2:53 PM 89.1 °F 93.7 °F 69.1 °F 52% 30.02 in 10.0 mi NNW 3.5 mph - N/A   Clear
3:53 PM 89.1 °F 93.7 °F 69.1 °F 52% 30.00 in 10.0 mi Calm Calm - N/A   Clear
4:53 PM 90.0 °F 95.4 °F 70.0 °F 52% 29.99 in 10.0 mi Calm Calm - N/A   Clear
5:53 PM 91.0 °F 97.6 °F 71.1 °F 52% 29.98 in 10.0 mi Calm Calm - N/A   Clear
6:53 PM 89.1 °F 95.0 °F 71.1 °F 55% 29.99 in 10.0 mi Calm Calm - N/A   Clear
7:53 PM 84.0 °F 90.2 °F 73.0 °F 69% 30.01 in 10.0 mi Calm Calm - N/A   Clear
8:53 PM 81.0 °F 85.8 °F 73.0 °F 77% 30.02 in 10.0 mi Calm Calm - N/A   Clear
9:53 PM 79.0 °F - 73.0 °F 82% 30.04 in 10.0 mi Calm Calm - N/A   Clear
10:53 PM 77.0 °F - 73.0 °F 88% 30.05 in 10.0 mi Calm Calm - N/A   Clear
11:53 PM 75.9 °F - 72.0 °F 87% 30.05 in 10.0 mi Calm Calm - N/A   Clear